Wind_Speed
59 61 61 61 61 63 60 54 49 47 46 45 44 43 40 38 35 32 30 28 25 23 21 19 17 15 13 11 10 10 10 9 9 8 8 8 7 7 6 6 6 5 5 5 4 4 3 2 2
60 62 62 63 64 64 60 53 50 48 48 47 46 44 42 39 35 33 31 30 27 25 22 20 18 16 15 13 12 11 11 10 10 9 9 8 8 8 7 7 7 6 6 6 5 4 4 3 3
60 62 63 64 65 63 57 52 50 50 49 49 48 46 43 39 35 34 33 31 29 27 24 22 20 18 16 14 13 13 12 12 11 11 10 10 9 9 8 8 8 7 7 6 6 5 5 4 4
59 62 64 65 65 60 56 52 51 52 52 50 48 47 45 40 37 36 35 32 30 29 26 23 21 19 17 16 15 14 13 13 12 12 12 11 11 10 10 9 8 8 8 7 7 6 6 5 4
58 61 65 66 63 59 56 54 53 53 53 50 48 47 45 41 40 39 37 34 31 30 27 24 22 20 18 17 16 15 15 14 14 14 13 13 12 12 11 10 10 9 9 8 8 7 6 6 6
59 62 65 65 61 59 57 55 54 54 54 52 49 47 45 43 42 41 38 36 33 30 28 25 23 21 19 18 17 16 16 16 16 15 15 14 14 13 12 11 11 11 10 9 9 8 7 7 6
59 62 63 62 60 60 58 56 55 54 55 54 52 50 47 44 43 41 39 37 34 31 29 26 24 22 20 19 18 17 17 17 17 17 16 16 15 15 14 13 12 11 11 10 10 9 8 8 8
57 60 62 62 61 60 58 57 56 55 54 54 52 51 49 44 43 40 39 36 35 32 30 28 25 23 21 20 19 18 18 18 18 18 18 17 17 16 15 14 13 13 12 11 11 10 10 9 9
57 60 62 61 60 58 57 57 57 56 56 55 53 51 49 47 43 40 38 37 36 34 32 29 26 23 21 20 19 18 18 18 19 19 19 18 18 17 16 15 14 13 13 12 12 11 11 10 10
57 60 60 58 57 57 55 56 57 57 57 56 53 52 50 49 45 40 37 37 36 35 33 30 27 24 23 21 20 19 18 18 19 19 19 19 18 17 17 16 15 14 14 13 13 13 12 12 12
57 57 57 58 57 57 56 55 56 57 57 56 52 50 50 49 47 42 38 37 36 35 34 31 27 25 24 22 21 20 19 19 19 20 20 20 19 19 18 17 16 15 15 14 14 14 14 14 14
55 55 57 57 57 56 56 55 56 57 56 55 53 51 49 48 46 43 40 38 37 35 34 32 29 26 25 23 21 21 20 20 20 20 21 21 21 20 20 19 18 17 17 16 16 16 16 16 17
55 54 56 57 57 56 55 56 56 55 55 55 53 52 51 49 47 45 44 40 38 37 34 32 30 28 26 24 23 21 21 20 21 21 21 21 22 22 21 21 20 19 19 19 18 18 19 19 19
52 54 55 55 56 55 54 55 57 56 55 54 52 51 51 50 48 47 44 41 39 37 35 33 32 30 28 26 24 23 22 22 21 22 22 23 23 23 23 23 23 22 21 21 21 21 21 21 22
52 53 55 55 55 53 53 54 55 55 55 54 53 51 50 50 49 47 45 43 41 38 36 34 33 32 31 28 26 25 24 23 23 23 23 24 25 25 25 25 25 25 24 24 23 23 24 24 24
51 52 54 54 55 54 54 52 53 54 54 53 53 52 51 50 49 47 46 45 43 41 37 36 35 34 32 30 28 26 26 25 25 25 25 25 26 27 27 27 28 27 26 26 26 26 26 27 27
49 50 53 52 53 53 52 52 53 53 53 52 52 51 51 50 50 48 46 44 44 42 40 37 37 36 34 33 32 30 29 29 28 28 28 28 29 29 29 30 30 29 29 29 29 29 29 30 30
45 47 49 51 53 50 49 50 51 52 52 51 50 50 51 50 50 49 47 45 44 43 42 41 39 37 37 36 34 32 32 31 30 30 30 31 31 31 31 32 32 32 32 32 32 32 32 33 33
41 43 45 48 50 49 48 49 50 51 50 49 49 49 49 49 49 49 48 46 44 43 43 41 41 39 39 38 37 36 35 34 33 33 33 34 34 34 34 34 34 34 35 35 35 35 35 35 36
37 39 43 46 47 48 46 47 47 49 50 48 47 47 47 47 48 48 48 47 46 45 43 42 41 41 40 40 39 39 39 38 37 35 35 36 37 36 36 36 37 37 37 37 38 38 38 39 39
33 34 38 42 44 45 47 45 46 47 48 48 45 44 46 46 45 46 46 46 45 44 44 43 43 43 41 41 42 41 41 40 40 39 39 39 40 39 38 39 39 39 39 39 40 41 41 41 41
30 31 32 36 40 43 45 43 44 45 46 46 42 39 41 44 44 44 44 44 44 44 44 44 44 44 43 43 43 43 43 42 42 43 43 43 42 42 42 42 42 42 42 42 43 43 43 43 42
25 29 29 30 33 36 41 40 41 42 42 42 41 38 37 39 41 41 42 43 43 44 45 44 44 44 44 44 44 44 44 44 44 45 45 45 44 44 44 44 45 44 45 45 45 44 44 44 44
22 24 26 27 28 30 33 36 37 38 39 39 39 38 36 37 39 40 41 42 43 43 44 44 44 44 44 45 45 45 45 46 46 47 47 47 47 47 47 47 47 46 46 46 47 47 47 47 47
22 22 23 25 26 27 28 30 31 31 33 34 36 35 34 35 36 38 40 41 41 42 43 43 44 45 45 45 46 46 46 46 47 47 48 48 48 49 49 49 49 49 49 49 49 49 49 49 48
20 20 22 23 23 23 25 26 26 27 29 31 33 34 34 34 35 36 37 39 40 41 42 43 43 44 45 45 46 47 47 48 48 49 49 49 50 50 50 50 51 51 51 51 51 51 51 50 49
18 18 18 20 21 20 21 23 24 25 26 27 30 32 34 34 34 36 37 38 40 41 42 43 44 45 45 45 45 46 46 47 48 49 50 50 51 51 51 51 52 52 52 53 52 52 51 51 51
17 16 17 17 17 18 19 19 21 23 24 25 28 31 32 33 34 34 35 36 38 40 42 42 43 43 44 45 46 47 48 48 49 50 51 52 52 52 52 51 52 52 52 52 52 52 51 51 51
17 17 16 16 17 17 18 19 19 21 23 25 27 29 31 32 33 34 35 36 37 38 39 41 42 43 44 45 46 47 48 48 49 50 51 51 52 52 53 53 53 53 52 52 52 52 52 51 51
16 17 15 16 17 17 17 18 19 20 21 23 25 28 30 31 32 33 34 35 36 37 38 39 40 42 43 44 44 45 46 47 48 49 49 50 51 52 52 53 53 53 53 53 52 52 52 51 51
Wind_Direction
219 219 219 220 220 219 217 213 209 206 205 206 208 211 213 216 216 217 218 217 218 220 220 221 222 222 222 223 226 227 228 227 226 228 229 232 236 239 242 248 254 257 261 265 267 273 282 294 309
218 217 217 219 220 219 216 212 208 206 207 207 208 209 211 213 213 215 216 216 217 218 218 220 222 222 222 224 226 227 226 226 225 227 229 232 235 239 242 247 251 254 258 262 263 267 273 282 296
218 217 217 218 219 219 216 212 208 207 207 208 209 209 210 211 210 213 215 215 215 217 218 219 221 221 222 224 226 226 225 225 226 227 230 232 235 238 241 246 248 252 256 259 261 263 267 272 283
217 216 216 218 219 217 215 212 209 208 208 209 209 209 210 210 211 212 214 212 214 216 217 218 220 221 221 223 224 225 226 226 228 229 231 234 236 239 242 245 247 250 254 257 259 261 264 267 276
217 216 217 218 217 214 214 212 212 210 209 210 209 208 208 209 209 211 211 212 213 215 216 217 219 220 221 222 223 224 227 228 229 230 232 234 237 240 242 245 246 250 254 256 257 260 262 266 274
216 216 217 216 215 212 212 211 213 212 211 210 209 208 206 207 208 209 209 209 211 213 215 217 219 220 221 222 223 224 227 230 231 232 233 234 237 240 243 245 247 250 253 254 256 259 263 268 274
216 216 217 215 212 211 210 211 212 213 213 212 210 208 206 206 206 208 208 206 209 212 214 215 218 220 222 223 224 226 229 232 233 233 234 235 238 240 242 244 247 250 252 254 256 259 263 268 275
216 216 216 213 210 209 208 210 211 212 213 214 212 210 207 206 207 207 206 205 207 211 212 215 217 220 222 224 226 229 232 234 235 235 236 237 238 240 242 245 247 250 254 256 259 261 265 270 277
214 216 214 211 209 207 208 210 211 212 213 214 214 212 212 212 211 210 209 208 209 212 213 214 216 219 223 226 229 232 235 237 238 238 238 238 239 240 243 245 247 251 255 259 263 266 270 275 280
212 214 212 209 208 208 209 210 211 212 213 214 215 216 216 215 216 214 213 212 212 212 212 214 215 219 223 227 231 235 238 241 241 241 241 241 241 242 244 247 249 253 258 262 265 270 274 278 282
211 212 208 209 208 208 208 209 210 212 213 215 216 218 220 220 220 221 217 214 213 214 213 212 214 220 225 229 232 236 239 242 243 243 244 244 245 246 248 250 252 255 260 264 267 270 274 278 282
209 209 207 208 208 208 208 208 209 211 213 215 216 218 221 223 224 223 221 219 218 215 212 211 214 220 225 229 233 237 239 241 243 244 245 247 248 250 251 253 255 258 262 265 269 272 276 279 283
206 207 206 206 208 208 208 208 208 209 212 215 216 218 220 223 224 223 223 222 219 217 216 215 217 221 227 231 234 238 240 243 244 244 246 247 249 251 253 255 257 260 264 267 270 273 276 279 282
204 205 203 203 205 206 208 208 208 209 211 214 216 218 221 223 224 225 226 226 225 222 220 220 222 224 228 233 236 239 243 246 247 248 248 249 250 252 255 257 259 262 265 268 270 273 277 280 282
202 203 203 203 202 204 207 208 208 208 211 215 217 218 220 223 225 226 228 229 229 228 227 227 227 227 229 233 238 241 245 249 251 253 254 254 254 254 255 257 259 262 265 268 270 273 276 278 281
201 203 202 201 201 202 206 208 207 209 210 214 216 219 221 223 225 227 229 231 232 233 232 232 232 231 233 236 240 243 247 251 256 258 259 259 259 258 258 258 260 262 265 268 270 273 275 278 279
201 203 201 199 200 201 206 206 206 208 211 213 216 219 221 223 225 227 229 231 233 235 236 236 236 237 238 240 242 245 249 254 257 259 261 262 263 262 262 262 262 263 265 267 270 272 275 278 279
200 202 202 201 200 202 205 205 207 209 213 215 216 218 220 223 225 227 229 231 233 235 237 239 239 241 242 244 246 250 254 256 257 260 262 263 264 265 264 264 264 265 267 268 270 273 274 276 278
198 201 203 202 202 203 206 206 205 206 209 212 215 218 221 223 224 226 229 231 233 236 238 240 243 244 245 247 249 252 255 258 260 261 263 265 266 266 266 267 267 267 268 269 271 273 274 276 276
197 200 203 203 204 206 207 208 209 206 207 211 215 217 220 224 226 227 228 231 234 236 239 241 244 247 249 250 252 253 254 257 260 262 264 265 266 267 268 268 267 268 269 270 272 274 275 275 276
196 198 201 204 207 210 210 210 209 210 210 211 213 215 218 220 224 227 229 231 234 236 238 241 244 247 249 251 253 255 256 258 260 263 264 264 265 266 267 268 269 269 271 272 274 275 276 276 277
195 198 199 203 208 211 212 216 214 214 212 213 213 215 218 222 225 228 229 233 235 238 240 242 245 247 250 252 254 255 256 258 260 262 263 264 264 265 267 268 270 271 272 274 276 276 276 276 278
193 198 200 202 207 213 216 219 217 218 216 216 218 220 221 223 226 229 232 234 236 239 240 243 244 246 249 252 254 255 257 259 260 261 263 264 265 266 267 269 270 271 273 275 276 277 278 278 279
190 193 200 205 209 215 216 220 221 222 222 222 223 225 227 228 228 231 233 235 237 239 241 243 245 246 249 251 254 256 258 259 261 262 262 263 264 266 267 269 271 272 273 274 275 277 278 278 279
187 191 196 204 210 216 218 224 225 226 228 228 228 228 230 231 232 233 235 238 239 240 242 245 246 248 249 251 253 255 257 258 259 261 263 264 266 267 268 269 270 271 272 274 275 276 277 278 280
186 190 196 203 209 214 220 225 225 227 230 231 231 231 231 233 234 235 236 238 240 241 243 245 247 249 250 252 253 255 257 258 260 262 264 265 267 268 268 268 270 272 273 274 275 276 276 278 280
186 192 198 203 209 214 218 223 225 226 229 231 232 232 233 235 238 239 239 240 242 244 245 246 248 249 251 252 254 255 257 259 261 262 263 266 267 267 269 270 271 272 274 275 275 276 277 278 279
193 197 204 208 211 218 221 222 224 226 229 232 232 232 233 235 237 239 240 243 244 245 246 248 249 251 252 254 255 257 259 260 261 262 264 266 267 268 269 271 272 272 273 274 275 277 278 279 279
199 205 210 213 217 222 225 225 224 227 228 231 233 234 235 236 238 240 242 244 245 246 247 248 249 251 253 254 255 257 258 260 261 263 264 265 267 268 269 270 272 273 274 275 276 277 277 278 279
206 211 217 221 224 227 230 230 229 231 231 232 235 236 237 237 238 240 242 244 246 247 248 249 251 252 253 255 256 257 258 260 261 262 264 265 266 267 269 270 272 273 274 275 276 277 277 277 278
Height
5761 5767 5773 5780 5784 5789 5798 5812 5822 5827 5830 5834 5838 5843 5848 5853 5859 5865 5867 5869 5871 5874 5877 5879 5881 5883 5884 5886 5887 5888 5889 5890 5891 5891 5891 5892 5892 5892 5892 5892 5892 5892 5891 5891 5890 5890 5889 5888 5887
5751 5756 5763 5768 5773 5780 5795 5808 5816 5821 5824 5828 5832 5837 5843 5848 5854 5859 5861 5865 5868 5871 5874 5876 5879 5881 5882 5884 5885 5887 5888 5889 5889 5890 5890 5891 5891 5891 5891 5891 5891 5891 5890 5890 5889 5889 5888 5887 5887
5739 5746 5753 5757 5763 5776 5793 5803 5811 5813 5816 5821 5826 5832 5838 5844 5850 5854 5857 5861 5864 5867 5870 5873 5876 5878 5880 5882 5883 5885 5886 5887 5888 5888 5889 5889 5890 5890 5890 5890 5890 5890 5889 5889 5888 5888 5887 5886 5886
5729 5737 5743 5748 5757 5774 5788 5797 5802 5803 5809 5814 5821 5827 5833 5840 5845 5849 5853 5856 5860 5864 5867 5870 5873 5875 5877 5879 5881 5883 5884 5885 5886 5887 5887 5888 5888 5888 5889 5889 5889 5888 5888 5888 5887 5887 5886 5885 5885
5720 5727 5732 5739 5752 5769 5780 5787 5791 5796 5803 5808 5815 5822 5828 5835 5840 5843 5847 5851 5856 5859 5863 5866 5869 5872 5874 5877 5878 5880 5882 5883 5884 5885 5886 5886 5887 5887 5887 5887 5887 5887 5887 5886 5886 5885 5885 5884 5884
5710 5715 5722 5732 5748 5762 5771 5778 5783 5790 5797 5802 5808 5816 5823 5830 5834 5838 5842 5846 5851 5855 5859 5862 5866 5869 5871 5874 5876 5877 5879 5881 5882 5883 5883 5884 5885 5885 5885 5885 5885 5885 5885 5885 5884 5884 5883 5883 5882
5701 5707 5715 5729 5743 5753 5763 5770 5776 5784 5790 5796 5803 5811 5817 5823 5828 5832 5836 5840 5845 5850 5854 5858 5862 5865 5868 5870 5873 5874 5876 5878 5879 5880 5881 5882 5883 5883 5883 5883 5883 5883 5883 5883 5883 5882 5882 5881 5880
5692 5700 5708 5720 5732 5745 5756 5762 5769 5777 5784 5791 5798 5805 5812 5818 5823 5827 5830 5834 5839 5845 5850 5854 5858 5861 5864 5867 5869 5871 5873 5875 5876 5877 5878 5879 5880 5881 5881 5881 5881 5881 5881 5881 5881 5880 5880 5879 5879
5682 5690 5699 5714 5727 5740 5748 5754 5762 5770 5777 5784 5793 5801 5807 5811 5816 5821 5825 5829 5834 5839 5845 5849 5853 5857 5860 5863 5866 5868 5870 5871 5873 5874 5875 5876 5877 5878 5878 5879 5879 5879 5879 5879 5879 5878 5878 5877 5876
5671 5681 5696 5711 5722 5732 5739 5747 5755 5763 5770 5778 5787 5795 5800 5806 5812 5816 5821 5825 5830 5835 5840 5845 5849 5853 5856 5859 5862 5864 5866 5868 5869 5871 5872 5873 5874 5875 5875 5876 5876 5876 5876 5876 5876 5876 5875 5875 5874
5664 5676 5692 5702 5712 5721 5729 5738 5747 5756 5764 5774 5783 5790 5796 5801 5807 5811 5815 5820 5825 5830 5834 5840 5844 5848 5852 5855 5858 5860 5862 5864 5866 5867 5868 5870 5871 5871 5872 5873 5873 5873 5873 5873 5873 5873 5872 5872 5871
5658 5671 5683 5694 5703 5712 5721 5730 5740 5749 5759 5768 5776 5782 5789 5795 5801 5807 5811 5815 5821 5826 5830 5834 5839 5844 5847 5851 5854 5856 5858 5860 5862 5863 5865 5866 5867 5868 5869 5869 5870 5870 5870 5870 5870 5869 5869 5868 5867
5652 5664 5675 5686 5695 5705 5714 5723 5733 5743 5753 5761 5769 5776 5783 5790 5796 5801 5806 5811 5816 5821 5826 5829 5834 5838 5842 5846 5849 5851 5854 5856 5857 5859 5860 5862 5863 5864 5865 5865 5866 5866 5866 5866 5866 5866 5865 5864 5864
5647 5657 5667 5678 5689 5698 5708 5718 5727 5737 5747 5755 5763 5771 5778 5784 5790 5795 5801 5806 5811 5816 5821 5825 5829 5833 5837 5841 5844 5847 5849 5851 5853 5855 5856 5857 5858 5859 5860 5861 5862 5862 5862 5862 5862 5861 5861 5860 5859
5640 5650 5661 5671 5682 5693 5703 5712 5721 5732 5741 5749 5757 5764 5771 5777 5783 5789 5795 5800 5805 5810 5816 5820 5824 5828 5832 5835 5838 5841 5844 5846 5848 5850 5851 5852 5853 5854 5855 5856 5857 5857 5857 5857 5857 5857 5856 5856 5855
5635 5644 5655 5667 5677 5687 5697 5706 5717 5725 5734 5742 5750 5758 5765 5771 5777 5783 5789 5794 5799 5804 5810 5815 5819 5823 5827 5830 5833 5836 5838 5841 5842 5844 5846 5847 5848 5849 5850 5850 5851 5852 5852 5852 5852 5851 5851 5850 5849
5631 5640 5651 5662 5672 5681 5690 5700 5710 5718 5727 5735 5743 5751 5758 5765 5771 5777 5783 5788 5793 5798 5803 5808 5812 5816 5820 5824 5827 5830 5832 5835 5837 5838 5840 5841 5842 5843 5843 5844 5845 5845 5846 5845 5845 5845 5844 5844 5843
5630 5639 5649 5658 5668 5676 5686 5696 5705 5713 5722 5729 5737 5744 5751 5758 5765 5771 5777 5782 5787 5792 5797 5802 5806 5810 5814 5817 5820 5823 5826 5828 5830 5832 5833 5834 5835 5836 5837 5837 5838 5838 5839 5839 5838 5838 5837 5837 5836
5629 5638 5646 5656 5664 5673 5682 5691 5699 5707 5716 5723 5730 5738 5745 5752 5758 5764 5770 5776 5781 5786 5791 5795 5799 5803 5807 5810 5813 5816 5819 5821 5823 5824 5826 5827 5828 5829 5829 5830 5830 5831 5831 5831 5831 5830 5830 5829 5828
5629 5636 5644 5652 5660 5669 5677 5686 5693 5700 5709 5717 5724 5731 5738 5745 5751 5758 5764 5770 5775 5780 5784 5788 5792 5796 5799 5803 5806 5808 5811 5813 5815 5817 5818 5819 5820 5821 5822 5822 5822 5822 5823 5823 5822 5822 5821 5820 5819
5630 5637 5644 5652 5659 5666 5674 5681 5688 5696 5703 5710 5717 5725 5732 5739 5746 5752 5758 5764 5769 5774 5778 5782 5786 5789 5792 5795 5798 5800 5802 5805 5807 5809 5810 5811 5812 5813 5813 5813 5814 5814 5814 5814 5813 5813 5812 5811 5810
5632 5638 5644 5651 5658 5664 5671 5678 5685 5691 5698 5706 5713 5720 5727 5734 5740 5746 5752 5758 5763 5767 5771 5774 5778 5781 5784 5787 5789 5792 5794 5796 5798 5800 5801 5802 5803 5804 5804 5804 5804 5804 5804 5804 5803 5803 5802 5801 5800
5633 5639 5645 5651 5656 5663 5669 5676 5683 5687 5694 5702 5709 5716 5722 5728 5735 5740 5746 5751 5755 5759 5763 5767 5770 5773 5776 5779 5781 5783 5786 5788 5789 5790 5792 5792 5793 5793 5794 5794 5794 5794 5794 5794 5793 5793 5792 5791 5790
5635 5641 5646 5651 5656 5662 5668 5674 5681 5686 5693 5700 5705 5711 5717 5722 5728 5733 5738 5743 5747 5751 5755 5758 5762 5765 5767 5770 5772 5774 5776 5778 5779 5780 5781 5782 5783 5783 5783 5783 5784 5784 5783 5783 5783 5782 5781 5780 5779
5636 5642 5647 5651 5655 5661 5666 5672 5679 5684 5690 5695 5701 5707 5712 5716 5721 5727 5731 5735 5739 5743 5746 5750 5753 5755 5758 5760 5763 5765 5766 5767 5768 5769 5770 5771 5772 5772 5772 5773 5773 5773 5772 5772 5772 5771 5770 5769 5768
5638 5643 5649 5653 5657 5661 5666 5671 5677 5681 5686 5691 5696 5701 5706 5711 5715 5720 5724 5728 5731 5734 5737 5740 5743 5746 5748 5751 5753 5754 5756 5757 5758 5759 5760 5761 5761 5761 5762 5761 5761 5761 5761 5760 5760 5759 5758 5757 5756
5639 5643 5648 5653 5656 5660 5664 5669 5674 5678 5682 5687 5691 5696 5700 5705 5709 5713 5717 5720 5723 5726 5728 5731 5734 5736 5738 5740 5742 5744 5745 5746 5747 5748 5749 5749 5750 5750 5750 5750 5750 5749 5749 5748 5748 5747 5746 5745 5744
5641 5644 5648 5652 5655 5658 5663 5666 5671 5674 5678 5682 5686 5690 5694 5698 5702 5706 5709 5711 5714 5717 5719 5722 5724 5726 5728 5730 5732 5733 5734 5735 5736 5737 5737 5738 5738 5738 5738 5738 5737 5737 5736 5736 5735 5735 5734 5733 5732
5642 5645 5647 5650 5654 5657 5660 5666 5667 5670 5673 5676 5679 5683 5687 5691 5695 5698 5701 5703 5706 5708 5710 5712 5714 5716 5718 5719 5721 5722 5723 5724 5724 5725 5725 5726 5726 5726 5726 5726 5725 5725 5724 5724 5723 5722 5722 5721 5719
5641 5644 5647 5650 5653 5655 5658 5665 5664 5666 5669 5671 5674 5677 5681 5684 5687 5690 5693 5695 5697 5699 5701 5703 5704 5706 5707 5708 5709 5710 5711 5712 5713 5713 5713 5713 5714 5714 5714 5713 5713 5712 5712 5711 5710 5710 5709 5708 5707